Flag for Germany Weather past 2 weeks in Arnstadt, Thuringia, Germany

Now
23 °F

Passing clouds.


Feels Like: 16 °F
Forecast: 16 / 33 °F
Wind: 5 mph from Northwest

Location: Erfurt-Bindersleben

Current Time: Dec 28, 2014 at 10:43:58 PM

Latest Report: Dec 28, 2014 at 10:00 PM


Visibility: 13 mi

Pressure: 30.45 "Hg

Humidity: 92%

Dew point: 21 °F

Location of ArnstadtLocation

Historic Weather in Arnstadt — Graph

°F

Arnstadt temperature yesterday

Maximum temperature yesterday: 30 °F (at 1:00 PM)
Minimum temperature yesterday: 24 °F (at 11:00 PM)
Average temperature yesterday: 27 °F

Past Weeks' High & Low Weather Summary

 TemperatureHumidityPressure
High54 °F (Dec 18, 11:00 PM)100% (Dec 13, 10:00 PM)30.44 "Hg (Dec 13, 10:00 PM)
Low16 °F (Dec 28, 10:00 AM)54% (Dec 27, 2:00 PM)29.65 "Hg (Dec 27, 4:00 PM)
Average38 °F86%30.02 "Hg
* Reported Dec 13 9:00 PM — Dec 28 9:00 PM, Arnstadt, Weather by CustomWeather, © 2014

Note: Actual official high and low records may vary slightly from our data, if they occured in-between our weather recording intervals... More about our weather records

Advertising

Arnstadt weather history for previous 24 hours

 ConditionsComfort  
Time TempWeatherWind HumidityBarometerVisibility
9:00 PM
Dec 28
24 °FOvercast.3 mph93%30.44 "Hg12 mi
8:00 PM22 °FPassing clouds.3 mph92%30.44 "Hg12 mi
7:00 PM24 °FPassing clouds.3 mph90%30.41 "Hg12 mi
6:00 PM25 °FOvercast.2 mph90%30.40 "Hg12 mi
5:00 PM25 °FOvercast.2 mph90%30.37 "Hg12 mi
4:00 PM25 °FOvercast.3 mph86%30.34 "Hg12 mi
3:00 PM25 °FOvercast.5 mph81%30.31 "Hg19 mi
2:00 PM23 °FOvercast.5 mph73%30.30 "Hg12 mi
1:00 PM21 °FPassing clouds.5 mph81%30.29 "Hg10 mi
12:00 PM18 °FPartly sunny.6 mph89%30.27 "Hg9 mi
11:00 AM17 °FLow clouds.7 mph90%30.24 "Hg11 mi
10:00 AM16 °FPartly sunny.6 mph90%30.20 "Hg10 mi
9:00 AM17 °FOvercast.8 mph87%30.16 "Hg10 mi
8:00 AM17 °FOvercast.8 mph88%30.12 "Hg10 mi
7:00 AM17 °FOvercast.10 mph89%30.06 "Hg11 mi
6:00 AM18 °FLow clouds.8 mph90%30.01 "Hg11 mi
5:00 AM18 °FLow clouds.7 mph90%29.97 "Hg10 mi
4:00 AM19 °FLow clouds.8 mph90%29.93 "Hg11 mi
3:00 AM20 °FLow clouds.8 mph91%29.89 "Hg11 mi
2:00 AM21 °FLow clouds.10 mph90%29.84 "Hg16 mi
1:00 AM23 °FOvercast.8 mph89%29.81 "Hg22 mi
12:00 AM23 °FOvercast.8 mph89%29.79 "Hg22 mi
11:00 PM
Dec 27
24 °FOvercast.8 mph87%29.77 "Hg19 mi
10:00 PM24 °FOvercast.8 mph86%29.74 "Hg19 mi
Weather by CustomWeather, © 2014

See weather overviewHow to use our weather pages